excitement

Flag for Germany Weather past 2 weeks in Fürstenfeldbruck, Bavaria, Germany

Now
50 °F

Partly sunny.


Feels Like: 48 °F
Forecast: 37 / 64 °F
Wind: 6 mph from Northwest

Location: Oberpfaffenhofen

Current Time: Sep 23, 2014 at 12:48:38 PM

Latest Report: Sep 23, 2014 at 12:20 PM


Visibility: N/A

Pressure: 30.18 "Hg

Humidity: 67%

Dew point: 39 °F

Location of FürstenfeldbruckLocation

Historic Weather in Fürstenfeldbruck — Graph

°F

Fürstenfeldbruck temperature yesterday

Maximum temperature yesterday: 54 °F (at 12:20 PM)
Minimum temperature yesterday: 45 °F (at 6:50 PM)
Average temperature yesterday: 50 °F

Past Weeks' High & Low Weather Summary

 TemperatureHumidityPressure
High77 °F (Sep 8, 3:20 PM)100% (Sep 10, 8:50 AM)30.18 "Hg (Sep 10, 8:50 AM)
Low43 °F (Sep 23, 6:50 AM)44% (Sep 8, 5:20 PM)29.92 "Hg (Sep 17, 3:50 PM)
Average60 °F78%30.02 "Hg
* Reported Sep 8 11:20 AM — Sep 23 11:50 AM, Fürstenfeldbruck, Weather by CustomWeather, © 2014

Note: Actual official high and low records may vary slightly from our data, if they occured in-between our weather recording intervals... More about our weather records

Advertising

Fürstenfeldbruck weather history for previous 24 hours

 ConditionsComfort  
Time TempWeatherWind HumidityBarometerVisibility
11:50 AM
Sep 23
50 °FPartly sunny.1 mph67%30.18 "HgN/A
11:20 AM50 °FPartly sunny.7 mph67%30.18 "HgN/A
10:50 AM50 °FScattered clouds.3 mph67%30.18 "HgN/A
10:20 AM50 °FScattered clouds.5 mph71%30.18 "HgN/A
9:50 AM48 °FPassing clouds.6 mph76%30.18 "HgN/A
9:20 AM46 °FSunny.8 mph76%30.18 "Hg10 mi
8:50 AM46 °FSunny.8 mph82%30.18 "Hg10 mi
8:20 AM45 °FScattered clouds.7 mph81%30.18 "HgN/A
7:50 AM45 °FPassing clouds.6 mph81%30.18 "HgN/A
7:20 AM43 °FPassing clouds.7 mph87%30.15 "HgN/A
6:50 AM43 °FPartly cloudy.6 mph87%30.15 "HgN/A
8:20 PM
Sep 22
45 °FPassing clouds.8 mph87%30.09 "HgN/A
7:50 PM46 °FScattered clouds.10 mph82%30.09 "HgN/A
7:20 PM46 °FBroken clouds.12 mph82%30.07 "HgN/A
6:50 PM45 °FRain showers. Partly sunny.16 mph87%30.07 "Hg3 mi
6:20 PM52 °FSprinkles. Partly sunny.18 mph72%30.04 "HgN/A
5:50 PM52 °FSunny.13 mph72%30.04 "Hg10 mi
5:20 PM52 °FSunny.16 mph67%30.04 "Hg10 mi
4:50 PM52 °FBroken clouds.14 mph72%30.04 "HgN/A
4:20 PM50 °FPartly sunny.14 mph76%30.04 "HgN/A
3:50 PM50 °FSprinkles. Partly sunny.18 mph71%30.04 "HgN/A
3:20 PM52 °FBroken clouds.8 mph77%30.04 "HgN/A
2:50 PM52 °FBroken clouds.9 mph72%30.04 "HgN/A
2:20 PM52 °FPartly sunny.13 mph72%30.04 "HgN/A
1:50 PM54 °FBroken clouds.13 mph72%30.07 "HgN/A
1:20 PM52 °FBroken clouds.13 mph77%30.07 "HgN/A
12:50 PM50 °FSprinkles. Broken clouds.12 mph82%30.07 "HgN/A
12:20 PM54 °FSprinkles. Partly sunny.12 mph67%30.07 "HgN/A
Weather by CustomWeather, © 2014

See weather overviewHow to use our weather pages